User: anonymous
Location: Fort Wayne
(41.1310°N, 85.1290°W)
Time: 01:56:36
(UTC-04:00)
Language:

Cosmos 1980 - Orbit

View from above orbital plane
View from above orbital plane
View from above satellite
View from above satellite

Ground track
Ground track

The orbit data is extracted from the following two-line orbital elements,

1 19649U 88102A   14261.72611052 -.00000154  00000-0 -55494-4 0  8538
2 19649 071.0031 009.6925 0004763 011.1543 348.9684 14.14548056332805
Epoch (UTC): 18 September 2014 17:25:35
Eccentricity: 0.0004763
inclination: 71.0031°
perigee height: 840 km
apogee height: 847 km
right ascension of ascending node: 9.6925°
argument of perigee: 11.1543°
revolutions per day: 14.14548056
mean anomaly at epoch: 348.9684°
orbit number at epoch: 33280

The dashed part of the orbit path shows where the satellite is in the earth's shadow,  

DLR